Volver al catálogo

NOAA 16 DEB

ActivoPO
NORAD 41372·DEBRIS·🇺🇸 United States

Lanzado Sep 21, 2000 desde Vandenberg Space Force Base

Loading…

Próximos Pases (próximas 24 horas)

TLE

ActualizadoSource: Space-Track

Época: Sep 14, 2026, 08:02 UTC

1 41372U 00055JR  26257.33515146  .00010927  00000-0  16874-2 0  9994
2 41372  98.9834 208.1833 0043946  43.2219 317.2420 14.72878069559237

Sigue NOAA 16 DEB en tiempo real con AllMySat

Download on the App Store